Theta_e
291 290 289 288 287 287 287 287 287 287 287 287 287 287 287 287 288 288 289 298 303 307 311 314 315 315 317 318 318 318 320 320 320 321 321 322 322 322 323 325 327 328 329
290 289 288 287 286 286 286 286 286 286 286 286 286 286 287 287 287 288 289 290 301 305 308 311 312 312 314 314 315 318 319 322 320 319 318 319 322 323 324 325 328 328 330
290 289 288 286 286 286 286 285 285 285 284 285 284 285 286 287 287 288 289 289 290 299 305 310 311 312 312 315 315 313 316 314 314 317 314 314 317 320 322 324 323 324 326
289 288 287 286 286 285 285 284 283 283 283 283 283 284 284 286 287 288 287 288 289 290 296 303 305 308 310 312 312 314 311 316 316 313 311 311 314 313 314 316 320 319 322
289 288 287 285 285 284 284 284 283 282 282 282 283 283 284 285 286 287 285 287 287 288 288 294 296 298 302 305 307 309 312 312 310 309 311 313 312 311 312 314 315 316 316
289 288 286 285 285 284 283 282 282 282 282 282 283 283 283 284 284 284 285 287 286 287 286 286 287 289 298 300 302 305 307 308 308 308 309 309 309 311 313 314 315 314 313
288 287 286 284 284 283 283 282 282 282 281 281 281 282 282 284 284 284 284 284 285 285 285 286 286 287 289 296 300 303 306 306 307 307 307 308 309 309 309 310 311 312 312
287 287 286 284 284 282 282 282 282 281 281 280 280 279 279 280 282 284 283 284 282 284 284 285 285 286 287 287 293 300 303 305 305 305 305 305 305 306 307 308 309 310 311
286 286 286 285 284 283 282 281 281 282 280 280 280 281 278 278 278 281 282 282 281 282 282 283 284 285 286 286 290 294 298 299 300 301 301 302 303 304 305 307 307 308 309
286 286 285 284 284 283 281 281 281 280 281 279 281 282 280 280 277 277 279 280 281 281 281 282 283 284 285 286 291 293 293 295 295 296 297 298 300 301 303 304 305 306 307
285 285 284 283 283 282 281 282 280 280 280 280 280 279 279 278 278 277 276 278 279 280 281 281 282 283 285 286 287 288 291 291 292 292 293 295 296 298 300 301 302 303 304
283 283 283 283 283 282 281 281 281 280 280 280 279 279 279 277 277 277 276 276 276 278 279 280 281 282 284 284 285 287 288 289 290 290 291 292 293 295 296 298 299 300 302
283 283 283 282 281 282 281 281 281 280 280 279 279 278 279 279 279 279 277 276 276 278 279 279 280 282 283 282 282 284 284 286 287 289 289 290 291 292 293 295 296 298 299
285 283 282 282 281 281 281 281 280 280 279 279 278 278 279 279 279 279 278 277 275 276 278 277 280 280 280 280 280 282 279 282 285 287 287 288 289 290 291 293 294 295 296
284 282 282 281 280 280 280 280 280 279 279 279 278 278 278 278 279 279 279 279 276 273 274 276 277 280 279 278 279 278 278 280 283 284 285 286 288 289 290 291 292 294 295
282 281 281 281 280 280 280 280 279 279 278 278 278 278 278 278 278 278 279 278 277 274 272 275 277 277 277 277 278 277 277 280 280 282 284 285 287 288 289 290 291 292 293
281 281 281 281 280 280 280 280 279 278 278 277 278 278 277 278 277 276 276 275 275 275 272 273 275 275 275 274 275 276 276 276 277 281 283 285 287 287 287 288 289 290 291
281 281 281 280 280 280 280 280 279 278 278 277 277 277 276 276 274 274 274 273 273 274 272 270 272 272 273 273 274 274 275 277 277 280 283 285 285 285 286 287 287 288 288
281 281 281 280 280 280 279 280 279 278 278 278 277 276 275 274 272 272 272 271 271 273 271 270 270 272 272 273 273 275 275 276 278 280 282 282 283 284 284 285 286 286 286
281 281 281 280 280 280 280 279 279 278 278 277 277 276 274 274 273 271 271 271 271 270 270 270 270 270 271 274 274 274 274 276 275 277 279 280 281 282 283 284 284 283 284
282 281 280 280 280 280 279 279 279 278 277 276 275 275 274 274 276 274 271 270 270 268 268 268 269 270 272 273 273 274 273 274 275 277 277 277 278 278 279 281 281 282 283
280 280 280 279 278 279 283 284 280 278 277 275 274 274 273 274 277 278 277 276 272 266 262 264 271 271 273 273 274 273 273 272 271 277 275 274 275 275 276 278 281 283 284
280 279 279 279 278 279 284 285 284 278 277 275 274 273 272 273 274 275 278 277 277 277 274 272 272 273 273 273 274 273 274 274 273 274 272 270 273 272 275 276 280 281 282
278 278 279 278 279 278 284 286 284 277 276 275 274 274 273 272 273 274 275 275 275 275 275 275 274 274 274 275 275 276 275 271 271 272 273 268 272 271 273 274 279 280 281
278 279 279 278 278 278 283 286 283 276 276 274 274 274 274 273 275 277 273 271 272 273 276 278 279 280 280 279 278 271 264 262 264 268 271 269 270 271 272 272 274 279 279
278 278 277 278 278 277 282 286 283 275 274 273 273 274 276 274 277 278 272 270 268 271 273 271 273 274 274 272 274 272 266 259 264 262 272 269 269 269 268 271 273 273 273
Wind_Speed
5 5 5 4 4 3 4 4 4 4 3 3 3 4 4 4 5 2 2 9 10 10 9 9 8 9 9 10 9 9 10 10 10 10 11 12 14 15 14 14 13 13 15
5 5 5 4 4 4 3 3 3 3 3 3 4 4 4 4 4 5 3 4 11 11 11 10 10 10 10 9 7 11 12 15 17 15 14 14 17 16 14 12 15 15 15
7 7 5 5 4 3 5 4 3 2 3 1 2 2 3 3 3 4 4 4 5 12 13 13 13 12 10 10 12 11 13 14 12 14 17 16 16 18 16 15 15 18 17
8 7 6 5 5 4 4 4 3 2 2 2 1 3 3 3 4 5 5 4 4 5 10 18 16 14 13 14 13 13 12 12 16 16 16 14 15 17 18 19 17 16 17
9 7 6 5 6 5 4 4 2 2 1 1 1 3 4 4 4 4 6 6 7 6 4 13 16 15 13 14 13 12 13 16 15 15 14 15 18 17 16 15 14 15 17
9 8 6 7 6 5 4 3 3 3 2 0 1 4 4 3 4 4 5 4 5 6 5 6 5 6 15 15 12 13 13 13 13 15 16 16 16 15 15 17 17 18 19
10 9 6 7 6 7 6 6 4 4 1 1 2 3 4 4 5 4 3 4 5 5 5 5 4 4 5 15 16 15 15 13 15 14 16 15 16 17 17 17 17 18 18
10 10 10 9 9 6 7 7 6 4 2 1 4 2 2 2 2 2 2 3 5 3 5 6 6 6 5 4 10 15 16 17 18 19 19 19 19 19 19 19 19 19 18
13 12 12 10 10 8 8 7 6 6 5 1 2 5 2 4 1 1 1 1 4 4 4 4 5 4 5 4 6 7 17 18 18 19 20 21 21 21 22 21 21 21 21
13 13 12 11 11 7 7 7 5 4 5 5 2 2 4 4 4 1 1 2 2 2 3 3 3 3 4 4 8 15 17 16 18 18 18 19 21 23 23 23 22 22 21
11 12 12 11 10 8 7 9 7 7 4 5 4 4 2 4 3 3 3 3 2 1 3 4 3 3 4 4 5 10 15 17 17 17 20 21 21 21 21 22 23 22 22
7 10 12 12 11 10 10 9 7 8 6 4 3 4 5 5 4 4 2 3 2 2 2 1 2 3 4 5 10 14 16 16 17 18 18 19 20 20 20 20 21 22 23
9 12 13 12 10 11 10 9 8 7 7 5 6 4 3 4 4 3 3 2 1 2 2 1 1 4 4 4 5 12 12 14 16 17 18 18 19 19 20 20 21 21 22
13 12 12 10 11 11 10 9 6 5 6 5 7 5 4 4 3 4 5 5 1 2 2 3 1 3 3 3 6 10 4 13 15 16 16 17 18 18 19 20 21 22 23
8 12 15 13 12 13 13 12 9 9 8 6 6 6 4 3 4 4 3 4 5 3 3 4 4 4 3 1 4 3 4 12 17 17 17 18 18 19 20 20 22 23 24
10 13 15 14 14 12 12 13 9 8 11 8 7 9 6 4 6 4 5 3 2 3 2 1 2 1 3 4 8 8 8 14 14 16 18 19 19 21 22 23 24 24 26
12 14 15 15 16 16 14 13 12 12 13 11 9 10 9 8 6 5 4 3 4 4 4 1 2 3 5 4 7 8 10 10 8 18 20 21 23 24 24 24 24 26 27
14 15 15 15 15 16 16 17 16 14 15 14 13 11 10 7 8 7 5 7 6 6 3 4 2 2 4 3 8 8 7 7 7 13 19 24 25 24 25 26 27 27 28
15 15 16 18 18 18 18 18 17 16 16 14 14 14 12 12 10 8 8 8 5 5 4 4 2 3 5 4 6 7 7 5 5 13 19 19 20 21 24 27 28 29 29
13 15 17 17 17 19 19 19 18 16 16 14 14 13 13 14 13 12 8 8 6 7 4 4 4 5 5 5 4 5 6 5 7 8 12 12 17 18 21 26 27 28 29
15 14 13 15 16 16 15 19 19 18 17 15 13 13 12 12 18 15 9 10 9 6 5 4 4 4 3 2 4 5 7 9 8 6 7 6 10 10 11 18 20 25 27
13 13 16 16 16 13 27 32 23 17 17 17 15 12 11 14 18 21 19 18 14 9 6 5 4 4 3 3 4 6 7 9 7 2 11 12 11 10 11 9 21 28 31
13 15 16 16 17 17 29 31 30 15 17 16 16 14 12 10 12 12 19 19 18 19 14 9 6 4 2 3 5 7 8 9 8 11 12 13 9 12 11 11 24 29 31
13 14 15 16 16 16 30 31 30 15 16 17 17 18 17 17 16 15 15 13 10 7 6 5 4 4 5 5 7 5 7 7 9 9 8 11 8 13 11 10 28 32 31
9 12 11 14 17 15 30 31 28 14 15 16 15 16 16 16 23 26 13 12 10 8 11 14 13 13 10 11 8 3 3 3 7 5 6 8 5 14 13 14 12 23 29
8 7 8 10 12 12 27 31 29 12 14 11 13 15 22 19 27 29 15 13 11 9 8 3 0 3 2 5 9 3 3 3 5 6 2 5 11 10 10 4 8 14 12
Wind_Direction
164 150 157 160 161 153 152 146 140 123 106 94 76 66 46 29 18 22 21 13 30 33 35 35 41 35 34 34 35 32 35 34 33 26 23 18 17 6 355 355 352 347 347
157 163 160 170 168 165 144 139 137 113 84 61 45 35 38 33 28 31 31 13 35 39 34 34 38 38 39 31 24 42 34 37 32 24 19 21 16 8 3 10 17 5 358
169 165 161 165 171 153 136 135 110 101 109 125 99 61 48 23 39 54 48 37 34 38 46 46 41 37 40 39 32 21 40 19 18 39 24 13 19 11 6 11 7 2 357
169 162 158 168 153 154 157 150 139 124 113 81 16 26 45 42 45 59 51 44 47 43 40 49 42 42 40 31 22 29 16 39 35 19 8 0 23 10 358 356 2 360 353
171 164 163 159 154 156 167 154 113 130 121 35 22 42 38 47 56 49 57 59 52 50 41 26 31 30 25 24 17 17 28 24 11 8 3 17 14 360 352 356 354 355 358
171 159 155 155 154 154 166 161 138 67 116 30 50 72 62 74 64 65 84 71 54 47 30 29 23 20 30 21 21 21 20 20 16 12 14 10 5 358 358 0 2 352 351
173 168 160 157 162 172 174 163 126 144 63 14 108 57 45 85 56 50 73 55 53 34 31 30 23 22 14 26 26 30 28 24 24 18 17 12 8 5 358 353 344 345 338
170 170 169 176 173 162 167 175 159 145 137 42 130 102 60 359 43 63 100 89 48 47 40 29 24 17 21 19 26 34 36 31 24 16 8 359 356 355 349 345 344 340 336
176 176 176 175 177 173 180 181 170 166 146 58 70 139 110 217 357 317 305 97 55 44 35 20 30 24 36 43 38 28 35 21 15 7 0 355 352 348 345 343 341 335 331
179 177 177 177 178 174 172 178 173 173 135 155 116 71 72 135 166 316 312 300 345 77 23 347 11 42 66 69 55 40 20 16 6 1 357 352 347 342 338 334 331 329 327
185 181 177 172 175 178 176 172 170 175 179 149 150 153 93 52 66 126 227 318 6 298 337 327 343 26 48 74 56 25 24 8 358 354 348 344 341 336 333 328 326 323 316
179 185 180 182 182 177 176 180 176 173 178 158 152 161 160 163 179 156 167 231 235 289 298 355 47 63 59 52 38 29 4 355 349 346 344 338 333 331 328 325 321 318 315
192 202 189 185 182 180 176 167 173 176 172 174 171 180 157 157 135 125 115 131 176 304 314 339 63 108 84 66 35 11 352 345 339 338 335 334 332 330 327 324 320 318 314
189 175 188 187 183 176 172 171 171 172 163 168 173 166 151 155 136 136 146 140 160 272 247 195 181 104 84 74 16 357 320 332 330 334 332 329 328 326 324 322 319 316 313
181 170 179 180 183 180 175 172 177 173 168 166 171 162 153 164 149 144 133 143 149 189 265 206 170 157 138 103 349 342 324 323 329 329 328 326 323 324 323 322 318 315 314
168 173 180 182 180 186 182 178 177 169 168 173 169 166 165 157 154 150 161 144 132 141 203 276 305 35 46 358 340 336 321 326 318 321 323 319 321 322 323 322 318 315 313
175 178 183 185 182 185 186 185 182 173 180 174 169 173 170 157 155 148 144 148 158 157 172 298 301 348 344 348 323 316 315 313 310 317 318 317 319 322 321 318 316 314 313
181 183 183 185 189 190 186 189 184 181 180 179 174 171 170 161 161 157 161 171 168 173 152 195 280 260 236 254 276 273 263 258 260 283 304 313 318 317 317 314 313 312 310
189 187 184 187 190 191 188 193 188 182 186 187 175 175 171 165 174 178 169 168 166 170 177 173 216 233 250 246 261 252 249 264 281 302 300 306 305 307 308 307 308 308 306
201 199 193 192 195 189 190 190 185 185 184 185 176 176 170 179 177 171 175 172 165 171 172 195 217 238 234 237 247 294 319 326 319 302 298 304 308 304 301 298 299 296 295
197 198 200 198 192 196 193 188 186 184 180 177 175 175 177 172 176 174 172 177 171 168 168 179 223 224 235 307 332 322 322 317 318 291 314 321 315 303 293 296 293 292 289
198 194 198 194 197 201 198 194 185 181 182 178 174 173 171 171 188 183 188 191 182 173 164 176 199 218 278 315 305 321 316 324 345 134 330 312 305 294 290 291 294 293 292
193 200 200 194 196 207 200 197 194 184 179 180 170 170 165 169 173 179 193 193 195 198 189 183 203 210 248 252 295 306 309 308 298 307 315 299 302 289 293 293 292 293 292
204 200 201 199 198 203 200 196 193 187 181 176 173 174 173 169 179 181 184 195 199 200 208 225 203 222 225 259 247 277 325 310 297 289 300 286 309 291 293 288 293 294 294
222 220 209 198 203 204 197 191 187 191 186 175 169 172 173 173 183 185 175 180 189 204 222 226 230 237 259 295 307 353 307 331 308 295 302 280 286 301 297 286 277 284 296
230 222 213 207 211 205 198 193 185 178 179 173 170 174 177 175 184 186 176 175 185 198 198 182 255 282 308 289 294 275 170 202 273 306 124 322 309 322 309 266 292 296 281